Weather History for KMRC - March, 2013

Change the Weather History Date:

Sunday, March 17, 2013

  Actual Average (KBNA) Record (KBNA)
Temperature  
Mean Temperature 58 °F 50 °F  
Max Temperature 71 °F 61 °F 82 °F (1982)
Min Temperature 44 °F 39 °F 16 °F (1900)
Degree Days  
Heating Degree Days 8    
Month to date heating degree days  
Since 1 July heating degree days  
Cooling Degree Days 0    
Month to date cooling degree days  
Year to date cooling degree days  
Growing Degree Days 8 (Base 50)    
Moisture  
Dew Point 53 °F    
Average Humidity 85    
Maximum Humidity 100    
Minimum Humidity 57    
Precipitation  
Precipitation 0.00 in 0.13 in 3.35 in (2002)
Month to date precipitation 2.22  
Year to date precipitation 9.91  
Snow  
Snow 0.00 in 0.10 in 17.00 in (1892)
Month to date snowfall 0.6  
Since 1 July snowfall 6.0  
Snow Depth -    
Sea Level Pressure  
Sea Level Pressure 29.87 in    
Wind  
Wind Speed 2 mph (NE)    
Max Wind Speed 15 mph    
Max Gust Speed -    
Visibility 9 miles    
Events      
T = Trace of Precipitation, MM = Missing Value Source: NWS Daily Summary

Daily Weather History Graph

Daily Weather History Graph

Search for Another Location

Airport or City:

Trip Planner

Search our weather history database for the weather conditions in past years. The results will help you decide how hot, cold, wet, or windy it might be!

Date:

Astronomy

Mar. 17, 2013 Rise Set
Actual Time 6:56 AM CDT 6:58 PM CDT
Civil Twilight 6:30 AM CDT 7:23 PM CDT
Nautical Twilight 6:01 AM CDT 7:53 PM CDT
Astronomical Twilight 5:31 AM CDT 8:23 PM CDT
Moon 10:19 AM CDT (3/17) No Moon Set
Length of Visible Light 12h 52m
Length of Day
12h 01m
Waxing Crescent, 31% of the Moon is Illuminated
Mar 17
Waxing Crescent
Mar 19
First Quarter
Mar 27
Full
Apr 2
Last Quarter
Apr 10
New

Hourly Weather History & Observations

Time (CDT) Temp. Dew Point Humidity Pressure Visibility Wind Dir Wind Speed Gust Speed Precip Events Conditions
12:35 AM 57.2 °F 50.0 °F 77% 29.91 in 10.0 mi Calm Calm - N/A   Clear
12:55 AM 55.4 °F 50.0 °F 82% 29.91 in 10.0 mi Calm Calm - N/A   Clear
1:15 AM 55.4 °F 50.0 °F 82% 29.91 in 10.0 mi Calm Calm - N/A   Clear
1:35 AM 55.4 °F 48.2 °F 77% 29.91 in 10.0 mi Calm Calm - N/A   Clear
1:55 AM 53.6 °F 50.0 °F 88% 29.90 in 10.0 mi Calm Calm - N/A   Clear
2:15 AM 51.8 °F 48.2 °F 88% 29.90 in 10.0 mi Calm Calm - N/A   Clear
2:35 AM 51.8 °F 50.0 °F 94% 29.89 in 10.0 mi Calm Calm - N/A   Clear
2:55 AM 51.8 °F 50.0 °F 94% 29.89 in 10.0 mi Calm Calm - N/A   Clear
3:15 AM 50.0 °F 50.0 °F 100% 29.89 in 10.0 mi Calm Calm - N/A   Clear
3:35 AM 48.2 °F 48.2 °F 100% 29.89 in 10.0 mi Calm Calm - N/A   Clear
3:55 AM 46.4 °F 46.4 °F 100% 29.88 in 10.0 mi Calm Calm - N/A   Clear
4:15 AM 46.4 °F 46.4 °F 100% 29.88 in 9.0 mi Calm Calm - N/A   Clear
4:35 AM 46.4 °F 46.4 °F 100% 29.88 in 9.0 mi Calm Calm - N/A   Clear
4:55 AM 48.2 °F 48.2 °F 100% 29.89 in 10.0 mi Calm Calm - N/A   Partly Cloudy
5:15 AM 46.4 °F 46.4 °F 100% 29.88 in 7.0 mi Calm Calm - N/A   Partly Cloudy
5:35 AM 44.6 °F 44.6 °F 100% 29.89 in 7.0 mi Calm Calm - N/A   Clear
5:55 AM 46.4 °F 46.4 °F 100% 29.89 in 7.0 mi Calm Calm - N/A   Clear
6:15 AM 46.4 °F 46.4 °F 100% 29.90 in 7.0 mi Calm Calm - N/A   Clear
6:35 AM 46.4 °F 46.4 °F 100% 29.91 in 7.0 mi Calm Calm - N/A   Clear
6:55 AM 46.4 °F 46.4 °F 100% 29.92 in 6.0 mi Calm Calm - N/A   Partly Cloudy
7:15 AM 46.4 °F 46.4 °F 100% 29.92 in 5.0 mi Calm Calm - N/A   Scattered Clouds
7:35 AM - - N/A% 29.93 in 6.0 mi North 3.5 mph - N/A   Mostly Cloudy
7:55 AM 48.2 °F 48.2 °F 100% 29.93 in 5.0 mi NNE 4.6 mph - N/A   Partly Cloudy
8:15 AM 50.0 °F 50.0 °F 100% 29.94 in 6.0 mi North 3.5 mph - N/A   Partly Cloudy
8:35 AM 51.8 °F 51.8 °F 100% 29.94 in 6.0 mi NNE 4.6 mph - N/A   Partly Cloudy
8:55 AM 51.8 °F 51.8 °F 100% 29.94 in 6.0 mi ENE 4.6 mph - N/A   Clear
9:15 AM 53.6 °F 53.6 °F 100% 29.94 in 6.0 mi ENE 3.5 mph - N/A   Clear
9:35 AM 55.4 °F 53.6 °F 94% 29.94 in 7.0 mi Calm Calm - N/A   Mostly Cloudy
9:55 AM 57.2 °F 57.2 °F 100% 29.94 in 8.0 mi NE 3.5 mph - N/A   Mostly Cloudy
10:15 AM 59.0 °F 57.2 °F 94% 29.93 in 10.0 mi Calm Calm - N/A   Overcast
10:35 AM 60.8 °F 57.2 °F 88% 29.93 in 10.0 mi Calm Calm - N/A   Overcast
10:55 AM 62.6 °F 57.2 °F 82% 29.92 in 10.0 mi Calm Calm - N/A   Scattered Clouds
11:15 AM 62.6 °F 57.2 °F 82% 29.92 in 10.0 mi Calm Calm - N/A   Partly Cloudy
11:35 AM 66.2 °F 57.2 °F 73% 29.91 in 10.0 mi Calm Calm - N/A   Scattered Clouds
11:55 AM 64.4 °F 57.2 °F 77% 29.90 in 10.0 mi WSW 3.5 mph - N/A   Mostly Cloudy
12:15 PM 69.8 °F 60.8 °F 73% 29.89 in 10.0 mi Variable 5.8 mph - N/A   Partly Cloudy
12:35 PM 69.8 °F 59.0 °F 68% 29.89 in 10.0 mi WSW 11.5 mph - N/A   Partly Cloudy
12:55 PM 71.6 °F 59.0 °F 64% 29.88 in 10.0 mi SW 10.4 mph - N/A   Scattered Clouds
1:15 PM 69.8 °F 57.2 °F 64% 29.88 in 10.0 mi WSW 5.8 mph - N/A   Mostly Cloudy
1:35 PM 69.8 °F 57.2 °F 64% 29.86 in 10.0 mi WNW 6.9 mph - N/A   Mostly Cloudy
1:55 PM 71.6 °F 57.2 °F 60% 29.85 in 10.0 mi SW 11.5 mph - N/A   Scattered Clouds
2:15 PM 71.6 °F 55.4 °F 57% 29.84 in 10.0 mi SW 15.0 mph - N/A   Mostly Cloudy
2:35 PM 71.6 °F 55.4 °F 57% 29.84 in 10.0 mi West 8.1 mph - N/A   Mostly Cloudy
2:55 PM 71.6 °F 55.4 °F 57% 29.83 in 10.0 mi WSW 5.8 mph - N/A   Mostly Cloudy
3:15 PM 71.6 °F 55.4 °F 57% 29.82 in 10.0 mi Variable 6.9 mph - N/A   Mostly Cloudy
3:35 PM 68.0 °F 57.2 °F 68% 29.82 in 10.0 mi Variable 6.9 mph - N/A   Mostly Cloudy
3:55 PM 66.2 °F 57.2 °F 73% 29.82 in 10.0 mi North 9.2 mph - N/A   Overcast
4:15 PM 66.2 °F 55.4 °F 68% 29.82 in 10.0 mi NNW 8.1 mph - N/A   Mostly Cloudy
4:35 PM 66.2 °F 55.4 °F 68% 29.81 in 10.0 mi North 6.9 mph - N/A   Mostly Cloudy
4:55 PM 66.2 °F 55.4 °F 68% 29.81 in 10.0 mi NNW 6.9 mph - N/A   Mostly Cloudy
5:15 PM 66.2 °F 53.6 °F 64% 29.82 in 10.0 mi NNE 9.2 mph - N/A   Mostly Cloudy
5:35 PM 64.4 °F 53.6 °F 68% 29.82 in 10.0 mi North 8.1 mph - N/A   Scattered Clouds
5:55 PM 64.4 °F 55.4 °F 73% 29.82 in 10.0 mi ENE 10.4 mph - N/A   Partly Cloudy
6:15 PM 60.8 °F 55.4 °F 82% 29.82 in 10.0 mi ENE 10.4 mph - N/A   Mostly Cloudy
6:35 PM 60.8 °F 55.4 °F 82% 29.82 in 10.0 mi ENE 5.8 mph - N/A   Mostly Cloudy
6:55 PM 59.0 °F 53.6 °F 82% 29.82 in 10.0 mi NE 4.6 mph - N/A   Mostly Cloudy
7:15 PM 59.0 °F 53.6 °F 82% 29.82 in 10.0 mi NE 4.6 mph - N/A   Mostly Cloudy
7:35 PM 55.4 °F 53.6 °F 94% 29.82 in 10.0 mi ENE 4.6 mph - N/A   Partly Cloudy
7:55 PM 53.6 °F 53.6 °F 100% 29.81 in 10.0 mi East 4.6 mph - N/A   Clear
8:15 PM 55.4 °F 53.6 °F 94% 29.82 in 10.0 mi East 3.5 mph - N/A   Clear
8:35 PM 55.4 °F 55.4 °F 100% 29.82 in 9.0 mi Calm Calm - N/A   Scattered Clouds
8:55 PM 53.6 °F 53.6 °F 100% 29.82 in 9.0 mi Calm Calm - N/A   Scattered Clouds
9:15 PM 55.4 °F 55.4 °F 100% 29.82 in 10.0 mi Calm Calm - N/A   Scattered Clouds
9:35 PM 53.6 °F 53.6 °F 100% 29.81 in 9.0 mi Calm Calm - N/A   Mostly Cloudy
9:55 PM 55.4 °F 55.4 °F 100% 29.81 in 10.0 mi Calm Calm - N/A   Overcast
10:15 PM 57.2 °F 57.2 °F 100% 29.80 in 10.0 mi South 3.5 mph - N/A   Overcast
10:35 PM 62.6 °F 57.2 °F 82% 29.80 in 10.0 mi South 5.8 mph - N/A   Overcast
10:55 PM 62.6 °F 57.2 °F 82% 29.79 in 10.0 mi South 9.2 mph - N/A   Overcast
11:15 PM 62.6 °F 57.2 °F 82% 29.79 in 10.0 mi South 9.2 mph - N/A   Overcast
11:35 PM 62.6 °F 57.2 °F 82% 29.79 in 10.0 mi SSE 6.9 mph - N/A   Overcast
11:55 PM 62.6 °F 57.2 °F 82% 29.78 in 10.0 mi South 8.1 mph - N/A   Overcast